This is the latest recevied weather packets stored in our database for station/object OE3CJB-13. If no packets are shown the sender has not sent any weather packets the latest 10 day(s).
| Time | Temp. | Humidity | Pressure | Rain* | Wind** | Luminosity | Snow |
|---|---|---|---|---|---|---|---|
| 1777800712 | 22.22° C | 21% | 769.1 hPa | 0 mm | - | - | - |
| 1777799752 | 21.67° C | 23% | 769.1 hPa | 0 mm | - | - | - |
| 1777798842 | 20.56° C | 27% | 767.7 hPa | 0 mm | - | - | - |
| 1777797927 | 20° C | 29% | 768.5 hPa | 0 mm | - | - | - |
| 1777797016 | 18.89° C | 32% | 767.8 hPa | 0 mm | - | - | - |
| 1777796152 | 17.78° C | 34% | 767.9 hPa | 0 mm | - | - | - |
| 1777795290 | 17.22° C | 36% | 767.8 hPa | 0 mm | - | - | - |
| 1777794328 | 16.11° C | 38% | 767.9 hPa | 0 mm | - | - | - |
| 1777793416 | 15.56° C | 39% | 768.7 hPa | 0 mm | - | - | - |
| 1777792551 | 15° C | 40% | 767.1 hPa | 0 mm | - | - | - |
| 1777791642 | 14.44° C | 42% | 765.6 hPa | 0 mm | - | - | - |
| 1777790826 | 13.89° C | 42% | 764 hPa | 0 mm | - | - | - |
| 1777789816 | 13.33° C | 43% | 764 hPa | 0 mm | - | - | - |
| 1777788952 | 12.78° C | 44% | 762.4 hPa | 0 mm | - | - | - |
| 1777788042 | 12.22° C | 55% | 764 hPa | 0 mm | - | - | - |
| 1777787128 | 10° C | 62% | 763.2 hPa | 0 mm | - | - | - |
| 1777786216 | 9.44° C | 67% | 763.2 hPa | 0 mm | - | - | - |
| 1777785352 | 7.78° C | 69% | 764 hPa | 0 mm | - | - | - |
| 1777784491 | 6.67° C | 71% | 761.7 hPa | 0 mm | - | - | - |
| 1777783528 | 6.11° C | 71% | 756.9 hPa | 0 mm | - | - | - |
| 1777782616 | 5.56° C | 71% | 754.6 hPa | 0 mm | - | - | - |
| 1777781752 | 5.56° C | 71% | 753.2 hPa | 0 mm | - | - | - |
| 1777780890 | 5.56° C | 70% | 753.1 hPa | 0 mm | - | - | - |
| 1777779927 | 5.56° C | 69% | 753.8 hPa | 0 mm | - | - | - |
| 1777779015 | 5.56° C | 69% | 754.6 hPa | 0 mm | - | - | - |
* Rain latest hour (hover to see other rain measurements)
** Current wind speed in m/s (hover to see current wind gust speed)